Welcome to the New NWS' Forecast!
Most changes are behind the scenes, but click here for differences you might notice.
Latest weather observations around

Batavia Clermont County Airport (KI69)

Using English Units (Switch to International System of Units)
Date/ Time (EST) Wind (mph) Vis. (mi) Weather Sky Cond. Temp (°F) Rel. Humidity Wind Chill (°F) Heat Index (°F) Pressure Precip. (in)
Air Dwpt 6 hour Altimeter (inHg) Sea level (inHg) 1 hr 3 hr 6 hr
Max Min
Nov 16 14:55 WSW 8 10 Cloudy BKN015 OVC027 38 34     84% 32   30.05        
Nov 16 14:36 WSW 8 10 Cloudy OVC015 38 34     84% 32   30.05        
Nov 16 14:35 WSW 8 10 Cloudy OVC015 38 34     84% 32   30.05        
Nov 16 14:15 WSW 8 10 Cloudy OVC015 37 33     84% 31   30.04        
Nov 16 13:55 WSW 11 10 Cloudy OVC015 37 32     83% 29   30.04        
Nov 16 13:36 WSW 10 10 Clear   37 33     84% 30   30.03        
Nov 16 13:35 WSW 9 10 Clear   37 33     83% 31   30.03        
Nov 16 13:15 WSW 14 10 Clear   36 32     84% 28   30.03        
Nov 16 12:55 WSW 15 10 Clear   36 32     84% 27   30.03        
Nov 16 12:36 WSW 11 10 Cloudy OVC015 36 32     86% 28   30.04        
Nov 16 12:35 W 11 10 Cloudy OVC015 36 32     86% 28   30.04        
Nov 16 12:15 WSW 11 10 Cloudy OVC015 36 32     87% 28   30.04        
Nov 16 11:56 WSW 13 10 Cloudy OVC015 36 32     87% 27   30.04        
Nov 16 11:55 WSW 14 10 Cloudy OVC015 36 32     87% 27   30.04        
Nov 16 11:36 WSW 11 10 Cloudy OVC013 35 32     88% 26   30.04        
Nov 16 11:35 WSW 9 10 Cloudy OVC013 35 31     88% 27   30.04        
Nov 16 11:15 SW 9 10 Cloudy OVC013 34 31     88% 27   30.04        
Nov 16 10:56 SW 9 10 Cloudy OVC013 34 31     88% 27   30.04        
Nov 16 10:55 SW 10 10 Cloudy OVC013 34 31     88% 26   30.04        
Nov 16 10:35 SW 11 10 Cloudy OVC013 33 31     89% 25   30.03        
Nov 16 10:15 SW 11 10 Cloudy OVC011 33 30     90% 24   30.02        
Nov 16 09:56 SW 9 10 Cloudy OVC011 33 30     91% 25   30.02        
Nov 16 09:55 SW 10 10 Cloudy OVC011 33 30     91% 24   30.02        
Nov 16 09:35 SW 11 10 Cloudy OVC011 32 30     91% 23   30.02        
Nov 16 09:15 SW 10 10 Cloudy OVC011 32 30     92% 24   30.02        
Nov 16 08:56 SW 8 10 Cloudy OVC011 32 29     90% 25   30.02        
Nov 16 08:55 SW 8 10 Cloudy OVC011 32 29     90% 25   30.02        
Nov 16 08:35 SSW 10 10 Cloudy OVC009 32 29     91% 23   30.02        
Nov 16 08:15 SW 10 10 Cloudy OVC009 31 29     91% 23   30.02        
Nov 16 07:56 SW 9 10 Cloudy OVC009 31 29     92% 23   30.02        
Nov 16 07:55 SW 10 10 Cloudy OVC009 31 29     92% 22   30.02        
Nov 16 07:35 SW 10 10 Clear   31 29     92% 22   30.01        
Nov 16 07:15 SSW 7 7 Clear   31 29     93% 24   30        
Nov 16 06:56 SSW 6 7 Clear   31 29     93% 25   30.01        
Nov 16 06:55 SSW 7 7 Clear   31 29     93% 24   30.01        
Nov 16 06:35 SSW 7 7 Cloudy OVC007 31 29     93% 24   30.01        
Nov 16 06:15 SW 8 10 Cloudy OVC007 31 29     93% 23   30.01        
Nov 16 05:56 SW 7 10 Cloudy OVC007 31 29     92% 24   30.01        
Nov 16 05:55 SSW 8 10 Cloudy OVC007 31 29     93% 23   30.01        
Nov 16 05:35 SW 9 10 Cloudy OVC007 30 29     94% 22   30.01        
Nov 16 05:15 SW 13 7 Cloudy OVC007 30 29     94% 20   30.02        
Nov 16 04:56 SW 10 7 Cloudy OVC007 30 28     94% 21   30.01        
Nov 16 04:55 SW 11 7 Cloudy OVC007 30 28     94% 21   30.01        
Nov 16 04:35 SW 15 10 Cloudy OVC009 30 28     93% 19   30.02        
Nov 16 04:15 SW 15 10 Cloudy OVC009 30 28     92% 19   30.02        
Nov 16 03:56 WSW 10 10 Cloudy OVC009 30 28     92% 22   30.02        
Nov 16 03:55 WSW 13 10 Cloudy OVC009 30 28     92% 20   30.02        
Nov 16 03:35 SW 13 10 Cloudy OVC009 30 28     92% 20   30.01        
Nov 16 03:15 SW 8 10 Cloudy OVC009 31 29     92% 23   30.03        
Nov 16 02:56 SW 11 10 Cloudy OVC011 31 28     90% 22   30.03        
Nov 16 02:55 WSW 10 10 Cloudy OVC011 31 28     90% 22   30.03        
Nov 16 02:35 WSW 13 10 Cloudy OVC011 31 29     90% 21   30.03        
Nov 16 02:15 WSW 10 10 Cloudy OVC011 31 29     92% 22   30.03        
Nov 16 01:56 WSW 9 10 Cloudy BKN008 OVC013 31 29     92% 23   30.03        
Nov 16 01:55 WSW 10 10 Cloudy OVC008 31 29     92% 23   30.03        
Nov 16 01:35 WSW 14 10 Cloudy OVC008 31 30     93% 21   30.03        
Nov 16 01:16 WSW 13 7 Cloudy OVC006 31 30     96% 21   30.03        
Nov 16 01:15 WSW 13 7 Cloudy OVC006 31 30     96% 21   30.03        
Nov 16 00:55 WSW 11 10 Cloudy OVC008 31 30     96% 22   30.02        
Nov 16 00:35 WSW 14 10 Cloudy OVC008 31 30     94% 21   30.01        
Nov 16 00:16 WSW 14 10 Cloudy OVC008 31 30     94% 21   30.01        
Nov 16 00:15 SW 13 10 Cloudy OVC008 31 30     94% 22   30.01        
Nov 15 23:55 WSW 13 10 Cloudy OVC008 32 30     94% 22   30.02        
Nov 15 23:35 WSW 10 10 Cloudy OVC008 32 31     95% 23   30.02        
Nov 15 23:15 SW 10 10 Cloudy OVC008 32 31     95% 24   30.01        
Nov 15 22:55 WSW 10 10 Cloudy OVC008 32 31     96% 24   30.01        
Nov 15 22:36 WSW 10 10 Cloudy OVC008 32 31     96% 24   30.01        
Nov 15 22:35 WSW 10 10 Cloudy OVC008 32 31     96% 24   30.01        
Nov 15 22:16 WSW 11 10 Cloudy BKN008 OVC012 32 31     98% 23   30        
Nov 15 22:15 WSW 11 10 Cloudy BKN008 OVC012 32 31     97% 23   30.01        
Nov 15 21:55 WSW 10 10 Cloudy OVC010 32 31     96% 24   30.01        
Nov 15 21:36 WSW 7 10 Cloudy BKN008 OVC012 32 31     96% 26   30        
Nov 15 21:35 WSW 8 10 Cloudy OVC008 32 31     96% 25   30        
Nov 15 21:16 WSW 8 10 Cloudy BKN006 OVC010 32 32     98% 25   30        
Nov 15 21:15 W 8 10 Cloudy OVC006 32 32     98% 25   30        
Nov 15 20:55 W 8 10 Cloudy SCT008 BKN012 OVC022 32 32     98% 25   30        
Nov 15 20:35 W 8 5 Light Snow BKN008 OVC012 33 32     98% 25   29.99        
Nov 15 20:16 W 10 4 Light Snow BKN006 OVC011 33 32     98% 24   29.99        
Nov 15 20:15 W 10 4 Light Snow OVC006 33 32     98% 24   29.99        
Nov 15 19:55 W 7 1.75 Light Snow OVC006 33 32     99% 26   29.99        
Nov 15 19:35 W 9 3 Light Snow OVC006 33 32     98% 25   29.99        
Nov 15 19:16 WSW 6 2.5 Light Snow OVC008 33 32     97% 27   29.98        
Nov 15 19:15 WSW 6 3 Light Snow OVC008 33 32     97% 27   29.98        
Nov 15 18:55 WSW 5 5 Light Snow BKN006 BKN013 OVC019 33 32     99% 28   29.98   0   0
Nov 15 18:36 W 3 3 Light Snow BKN006 BKN011 OVC023 33 32     99% 30   29.98   0    
Nov 15 18:35 WSW 5 3 Light Snow BKN006 OVC021 33 32     98% 28   29.98   0    
Nov 15 18:16 W 5 2.5 Light Snow BKN004 BKN010 OVC021 33 32     99% 28   29.97   0    
Nov 15 18:15 W 5 2.5 Light Snow BKN004 BKN010 OVC021 33 32     99% 28   29.97   0    
Nov 15 17:55 WSW 5 2 Light Snow OVC004 33 32     99% 28   29.98        
Nov 15 17:36 W 5 1.75 Light Snow OVC004 33 32     99% 28   29.98        
Nov 15 17:35 WSW 5 1.75 Light Snow OVC004 33 32     99% 28   29.98        
Nov 15 17:16 WSW 6 2.5 Light Snow BKN006 BKN012 OVC026 33 33     99% 27   29.98        
Nov 15 17:15 WSW 6 2.5 Light Snow BKN006 BKN012 OVC024 33 32     98% 27   29.98        
Nov 15 16:55 W 8 2 Light Snow BKN008 OVC012 33 32     97% 26   29.97        
Nov 15 16:36 W 9 5 Light Snow BKN008 OVC022 34 33     96% 27   29.96        
Nov 15 16:35 WSW 10 5 Light Snow BKN008 OVC022 34 33     95% 26   29.96        
Nov 15 16:16 W 6 5 Fog/Mist OVC008 35 34     96% 30   29.96        
Nov 15 16:15 W 6 5 Fog/Mist OVC008 35 34     96% 30   29.96        
Nov 15 15:55 W 6 4 Fog/Mist BKN006 OVC012 35 34     98% 30   29.96   0 0  
Nov 15 15:36 WSW 6 4 Fog/Mist OVC006 35 34     98% 30   29.96   0    
Nov 15 15:35 WSW 6 4 Fog/Mist OVC006 35 34     98% 30   29.96   0    
Nov 15 15:15 W 5 10 Cloudy OVC006 35 34     98% 31   29.96        
Nov 15 14:55 W 6 5 Light Snow OVC004 35 34     98% 30   29.97        
Nov 15 14:36 WSW 5 10 Cloudy OVC004 35 34     99% 31   29.97        
Nov 15 14:35 WSW 5 10 Cloudy OVC004 35 34     99% 31   29.97        
Nov 15 14:15 Calm 10 Cloudy OVC004 34 34     99%     29.98        
Nov 15 13:55 Calm 7 Cloudy OVC004 34 34     100%     29.99        
Nov 15 13:36 Calm 4 Fog/Mist OVC004 34 34     99%     29.99        
Nov 15 13:35 Calm 4 Light Snow OVC004 34 34     99%     29.99        
Nov 15 13:15 Calm 2.5 Light Snow OVC004 34 34     99%     30.01        
Nov 15 12:55 SW 3 4 Light Snow OVC004 34 34     99% 31   30.02       0
Nov 15 12:36 Calm 5 Fog/Mist OVC004 34 34     99%     30.02        
Nov 15 12:35 Calm 5 Fog/Mist OVC004 34 34     99%     30.02        
Nov 15 12:17 Calm 10 Cloudy OVC004 34 34     99%     30.03        
Nov 15 11:55 Calm 10 Cloudy BKN004 BKN008 OVC019 34 33     99%     30.04   0    
Nov 15 11:36 SE 3 4 Light Snow OVC006 33 33     99% 30   30.05   0    
Nov 15 11:35 SE 3 4 Light Snow BKN006 OVC017 33 33     99% 30   30.05   0    
Nov 15 11:15 Calm 4 Light Snow BKN004 OVC008 33 33     100%     30.06   0    
Nov 15 10:55 Calm 3 Light Snow BKN007 BKN031 OVC044 33 33     100%     30.05   0    
Nov 15 10:36 Calm 3 Light Snow OVC005 33 33     100%     30.07   0    
Nov 15 10:35 Calm 3 Light Snow OVC005 33 33     100%     30.07   0    
Nov 15 10:15 Calm 2.5 Light Snow OVC005 33 32     99%     30.07   0    
Nov 15 09:55 Calm 3 Light Snow OVC007 33 33     99%     30.07   0 0  
Nov 15 09:36 Calm 3 Light Snow OVC007 33 33     99%     30.07   0    
Nov 15 09:35 Calm 3 Light Snow OVC007 33 33     99%     30.07   0    
Nov 15 09:15 Calm 3 Light Snow OVC007 33 32     99%     30.08   0    
Nov 15 08:55 E 3 2.5 Light Snow OVC007 33 32     99% 29   30.08   0    
Nov 15 08:36 Calm 1.75 Light Snow OVC007 33 32     99%     30.09   0    
Nov 15 08:35 Calm 1.75 Light Snow OVC007 33 32     99%     30.08   0    
Nov 15 08:15 Calm 1.5 Light Snow OVC007 33 32     99%     30.1        
Nov 15 07:55 Calm 1.5 Light Snow OVC007 33 32     99%     30.1        
Nov 15 07:36 ESE 3 1.75 Light Snow OVC007 33 32     98% 29   30.1        
Nov 15 07:35 Calm 1.75 Light Snow OVC007 33 32     98%     30.1        
Nov 15 07:15 E 3 3 Fog/Mist OVC007 32 32     99% 29   30.1        
Nov 15 06:55 E 3 2.5 Light Snow OVC007 32 32     99% 29   30.11   0   0
Nov 15 06:36 E 3 2 Light Snow OVC007 32 32     99% 29   30.12   0    
Nov 15 06:35 E 3 2 Light Snow OVC007 32 32     99% 29   30.12   0    
Nov 15 06:15 Calm 2 Light Snow OVC007 32 32     99%     30.14   0    
Nov 15 05:55 ESE 3 2.5 Light Snow OVC007 32 32     99% 29   30.14   0    
Nov 15 05:36 ESE 5 3 Light Snow OVC007 32 32     99% 28   30.14   0    
Nov 15 05:35 ESE 5 4 Light Snow OVC007 32 32     99% 28   30.14   0    
Nov 15 05:15 E 5 4 Light Snow OVC007 32 32     99% 27   30.14   0    
Nov 15 04:55 E 5 4 Light Snow OVC007 32 32     99% 27   30.14   0    
Nov 15 04:36 E 3 4 Light Snow OVC005 32 32     99% 29   30.16   0    
Nov 15 04:35 E 3 4 Light Snow OVC005 32 32     99% 29   30.16   0    
Nov 15 04:15 ENE 3 4 Light Snow BKN005 BKN019 OVC040 32 31     98% 29   30.17   0    
Nov 15 03:57 E 3 4 Light Snow SCT007 BKN011 OVC047 32 32     99% 29   30.18   0    
Nov 15 03:35 Calm 3 Light Snow OVC009 32 31     96%     30.2   0    
Nov 15 03:16 Calm 4 Light Snow OVC009 32 31     96%     30.21   0    
Nov 15 03:15 Calm 3 Light Snow OVC009 32 31     96%     30.21   0    
Nov 15 02:55 Calm 3 Light Snow OVC011 32 31     95%     30.21   0    
Nov 15 02:35 Calm 3 Light Snow BKN011 BKN015 OVC028 32 30     92%     30.22   0    
Nov 15 02:16 ENE 6 5 Light Snow SCT011 BKN028 OVC035 32 30     93% 26   30.18   0    
Nov 15 02:15 ENE 6 5 Light Snow SCT011 BKN028 OVC047 32 30     93% 26   30.18   0    
Nov 15 01:55 E 8 7 Light Snow SCT015 SCT037 OVC080 31 29     92% 24   30.19   0    
Nov 15 01:35 E 9 7 Light Snow SCT047 BKN050 OVC080 31 29     92% 23   30.21   0    
Nov 15 01:16 ENE 8 7 Light Snow SCT050 BKN055 OVC075 31 29     92% 24   30.22   0    
Nov 15 01:15 ENE 8 7 Light Snow BKN050 OVC075 31 29     91% 24   30.22   0    
Nov 15 00:55 ENE 7 7 Light Snow BKN060 OVC075 31 28     91% 24   30.24   0   0
Nov 15 00:35 ENE 8 7 Light Snow BKN060 OVC075 31 28     89% 23   30.26   0    
Nov 15 00:16 NE 6 7 Light Snow BKN050 OVC070 30 27     90% 24   30.28   0    
Nov 15 00:15 NE 6 7 Light Snow BKN050 OVC070 30 27     90% 24   30.28   0    
Nov 14 23:55 ENE 7 7 Light Snow OVC050 30 27     90% 23   30.28   0    
Nov 14 23:35 NE 6 7 Light Snow OVC050 30 27     88% 24   30.3   0    
Nov 14 23:16 ENE 6 7 Light Snow BKN055 OVC070 30 27     86% 24   30.31   0    
Nov 14 23:15 ENE 6 7 Light Snow SCT055 OVC070 30 27     87% 24   30.31   0    
Nov 14 22:55 ENE 7 10 Light Snow SCT055 OVC070 30 26     85% 23   30.32        
Nov 14 22:35 ENE 5 10 Cloudy OVC080 30 26     84% 25   30.32        
Nov 14 22:16 NE 7 10 Light Snow BKN080 OVC090 30 26     83% 23   30.32        
Nov 14 22:15 NE 8 10 Light Snow BKN080 OVC090 30 25     82% 23   30.32        
Nov 14 21:56 NE 5 10 Light Snow OVC080 30 25     81% 25   30.33        
Nov 14 21:55 NE 6 10 Light Snow OVC080 30 25     81% 24   30.33        
Nov 14 21:35 NE 8 10 Light Snow OVC080 30 24     78% 23   30.34        
Nov 14 21:16 ENE 7 10 Light Snow OVC090 30 23     75% 23   30.35        
Nov 14 21:15 ENE 8 10 Light Snow OVC090 30 23     75% 23   30.35        
Nov 14 20:56 ENE 6 10 Cloudy SCT070 OVC090 31 22     70% 25   30.36        
Nov 14 20:35 ENE 8 10 Cloudy SCT070 OVC090 31 21     66% 23   30.38        
Nov 14 20:16 E 6 10 Cloudy OVC100 31 21     67% 25   30.39        
Nov 14 20:15 E 6 10 Cloudy OVC100 31 21     67% 25   30.39        
Nov 14 19:55 ENE 6 10 Mostly Cloudy BKN110 31 21     66% 25   30.39        
Nov 14 19:35 E 7 10 Partly Cloudy SCT120 31 20     65% 24   30.4        
Nov 14 19:16 ENE 8 10 Clear CLR 31 20     64% 23   30.41        
Nov 14 19:15 ENE 8 10 Clear CLR 31 20     64% 23   30.41        
Nov 14 18:55 E 7 10 Clear CLR 31 20     63% 24   30.41        
Nov 14 18:35 E 8 10 Clear CLR 31 19     62% 23   30.41        
Nov 14 18:16 ENE 8 10 Clear CLR 31 19     61% 23   30.4        
Nov 14 18:15 ENE 8 10 Clear CLR 31 19     61% 23   30.41        
Nov 14 17:55 E 5 10 Clear CLR 31 19     61% 26   30.41        
Nov 14 17:35 ENE 5 10 Clear CLR 31 19     61% 26   30.41        
Nov 14 17:16 NE 10 10 Partly Cloudy SCT120 31 19     60% 22   30.41        
Nov 14 17:15 NE 9 10 Partly Cloudy SCT120 31 19     60% 23   30.41        
Nov 14 16:55 ENE 8 10 Partly Cloudy SCT120 31 19     60% 24   30.43        
Nov 14 16:35 ENE 9 10 Clear CLR 31 18     59% 23   30.45        
Nov 14 16:16 ENE 7 10 Clear CLR 31 19     61% 24   30.45        
Nov 14 15:55 E 7 10 Clear CLR 31 19     61% 24   30.46        
Nov 14 15:35 ENE 5 10 Clear CLR 31 20     62% 26   30.45        
Nov 14 15:16 E 10 10 Clear CLR 31 20     63% 23   30.45        
Nov 14 15:15 ENE 9 10 Clear CLR 31 20     63% 23   30.46        
Nov 14 14:55 NE 8 10 Clear CLR 31 20     63% 24   30.46        
Nov 14 14:35 E 8 10 Clear CLR 31 20     62% 24   30.48        
Nov 14 13:35 NE 8 10 Clear CLR 31 19     61% 23   30.51        
Nov 14 13:16 NNE 7 10 Clear CLR 31 19     62% 24   30.51        
Nov 14 13:15 NE 6 10 Clear CLR 31 19     62% 25   30.51        
Nov 14 12:55 ENE 8 10 Clear CLR 31 20     63% 23   30.51        
Nov 14 12:35 NE 8 10 Clear CLR 30 19     63% 23   30.54        
Nov 14 12:16 NE 6 10 Clear CLR 30 19     63% 24   30.54        
Nov 14 12:15 NE 8 10 Clear CLR 30 19     63% 22   30.54        
Nov 14 11:55 NE 9 10 Clear CLR 30 18     63% 21   30.55        
Nov 14 11:35 NE 7 10 Clear CLR 29 18     64% 22   30.57        
Nov 14 11:16 ENE 8 10 Clear CLR 29 19     66% 21   30.56        
Nov 14 11:15 ENE 9 10 Clear CLR 29 19     66% 20   30.56        
Nov 14 10:55 ENE 10 10 Clear CLR 29 19     66% 19   30.56        
Nov 14 10:35 ENE 8 10 Clear CLR 28 19     67% 20   30.57        
Nov 14 10:16 ENE 8 10 Clear CLR 28 18     68% 20   30.57        
Nov 14 09:55 ENE 6 10 Clear CLR 27 19     70% 21   30.56        
Nov 14 09:35 ENE 7 10 Clear CLR 27 20     73% 20   30.56        
Nov 14 09:16 ENE 6 10 Clear CLR 26 19     74% 20   30.55        
Nov 14 08:55 ENE 3 10 Clear CLR 26 19     77% 22   30.54        
Nov 14 08:35 Calm 10 Clear CLR 25 20     80%     30.55        
Nov 14 08:15 Calm 10 Clear CLR 25 19     80%     30.54        
Nov 14 07:55 Calm 10 Clear CLR 24 19     80%     30.53        
Nov 14 07:35 Calm 10 Clear CLR 24 19     80%     30.53        
Nov 14 07:15 ENE 3 10 Clear CLR 24 19     82% 20   30.53        
Nov 14 06:55 Calm 10 Clear CLR 24 19     83%     30.52        
Nov 14 06:35 Calm 10 Clear CLR 24 19     83%     30.51        
Nov 14 06:15 NE 3 10 Clear CLR 24 19     82% 20   30.5        
Nov 14 05:55 NNE 3 10 Clear CLR 24 19     81% 20   30.51        
Nov 14 05:36 NNE 5 10 Clear CLR 24 18     78% 19   30.51        
Nov 14 05:35 NNE 5 10 Clear CLR 24 18     78% 19   30.51        
Nov 14 05:15 N 5 10 Clear CLR 25 18     76% 19   30.51        
Nov 14 04:55 NNE 5 10 Clear CLR 25 18     76% 19   30.5        
Nov 14 04:36 NNE 7 10 Clear CLR 25 18     76% 17   30.49        
Nov 14 04:35 NNE 7 10 Clear CLR 25 18     76% 17   30.49        
Nov 14 04:15 N 5 10 Clear CLR 25 18     75% 19   30.49        
Nov 14 03:55 NNE 3 10 Clear CLR 25 19     77% 21   30.49        
Nov 14 03:35 N 5 10 Clear CLR 26 19     76% 20   30.49        
Nov 14 03:15 N 7 10 Clear CLR 26 20     78% 18   30.48        
Nov 14 02:56 NNE 5 10 Clear CLR 26 21     82% 20   30.48        
Nov 14 02:55 N 5 10 Clear CLR 26 21     81% 21   30.48        
Nov 14 02:35 N 6 10 Clear CLR 26 22     83% 20   30.47        
Nov 14 02:15 N 5 10 Clear CLR 26 22     85% 21   30.47        
Nov 14 01:55 NNW 5 10 Clear CLR 27 23     85% 21   30.48        
Nov 14 01:35 NNW 5 10 Clear CLR 27 23     85% 21   30.48        
Nov 14 01:15 NNW 6 10 Clear CLR 27 23     82% 21   30.47        
Nov 14 00:56 NNW 7 10 Clear CLR 27 23     82% 20   30.47        
Nov 14 00:35 NNW 6 10 Clear CLR 28 22     79% 22   30.46        
Nov 14 00:15 NNW 8 10 Clear CLR 28 23     79% 20   30.46        
Nov 13 23:56 NNW 5 10 Clear CLR 29 23     79% 23   30.46        
Nov 13 23:35 NNW 6 10 Clear CLR 29 23     78% 23   30.46        
Nov 13 23:15 NNW 6 10 Clear CLR 29 23     78% 23   30.45        
Nov 13 22:55 NNW 5 10 Clear CLR 30 23     77% 25   30.45        
Nov 13 22:35 NNW 6 10 Clear CLR 30 24     77% 24   30.45        
Nov 13 22:15 NNW 5 10 Clear CLR 30 24     76% 25   30.45        
Nov 13 21:56 NNW 8 10 Clear CLR 31 24     74% 23   30.44        
Nov 13 21:55 NNW 7 10 Clear CLR 31 24     74% 24   30.44        
Nov 13 21:35 NNW 5 10 Clear CLR 31 23     73% 26   30.44        
Nov 13 21:15 NNW 3 10 Clear CLR 31 23     72% 28   30.43        
Nov 13 20:55 N 5 10 Clear CLR 31 24     73% 26   30.42        
Nov 13 20:35 NNW 6 10 Clear CLR 32 24     71% 26   30.41        
Nov 13 20:15 NNW 10 10 Mostly Cloudy BKN038 32 23     70% 24   30.41        
Nov 13 19:55 NNW 11 10 Cloudy OVC038 32 24     73% 23   30.41        
Nov 13 19:35 NNW 9 10 Mostly Cloudy BKN038 33 24     70% 25   30.4        
Nov 13 19:15 NNW 8 10 Cloudy SCT029 OVC036 33 24     70% 26   30.39        
Nov 13 18:55 NW 7 10 Cloudy BKN030 OVC037 34 25     70% 28   30.37        
Nov 13 18:35 NNW 5 10 Cloudy SCT028 OVC037 35 26     69% 31   30.37        
Nov 13 18:15 NNW 8 10 Cloudy OVC035 35 26     69% 28   30.36        
Nov 13 17:55 NNW 8 10 Cloudy OVC035 35 26     69% 29   30.36        
Nov 13 17:35 NNW 10 10 Cloudy SCT029 OVC036 36 26     68% 28   30.35        
Nov 13 17:15 NW 11 10 Cloudy OVC036 36 25     65% 28   30.34        
Nov 13 16:55 NW 9 10 Cloudy OVC036 36 26     65% 30   30.34        
Nov 13 16:35 NNW 7 10 Cloudy OVC036 36 26     66% 31   30.33        
Nov 13 16:15 NW 7 10 Cloudy OVC034 36 26     66% 31   30.32        
Nov 13 15:55 NNW 9 10 Cloudy OVC032 37 26     66% 30   30.32        
Nov 13 15:35 NW 11 10 Cloudy OVC030 37 27     69% 29   30.31        
Nov 13 15:15 NW 10 10 Cloudy OVC030 37 27     68% 30   30.3        
Nov 13 14:55 NNW 9 10 Cloudy OVC030 37 27     69% 30   30.3        
Nov 13 14:35 NNW 6 10 Cloudy OVC028 37 28     70% 32   30.29        
Nov 13 14:15 NNW 9 10 Cloudy OVC028 37 29     73% 30   30.29        
Nov 13 13:55 N 8 10 Cloudy BKN024 OVC029 36 29     74% 30   30.29        
Nov 13 13:35 NNW 8 10 Cloudy OVC022 36 30     77% 30   30.29        
Nov 13 13:15 NNW 9 10 Cloudy SCT011 BKN018 OVC027 36 31     82% 29   30.29        
Nov 13 12:55 N 8 7 Cloudy BKN011 OVC020 35 32     88% 28   30.3        
Nov 13 12:35 NNW 10 7 Cloudy OVC011 35 32     89% 27   30.31        
Nov 13 12:15 N 6 5 Fog/Mist BKN006 OVC013 35 33     92% 30   30.31        
Nov 13 11:55 NNW 10 2.5 Fog/Mist OVC006 34 33     96% 26   30.3        
Nov 13 11:35 NNW 11 2.5 Fog/Mist OVC006 35 33     95% 26   30.29        
Nov 13 11:15 NNW 9 3 Fog/Mist OVC006 35 34     95% 28   30.28        
Nov 13 10:55 NNW 8 4 Fog/Mist OVC006 36 34     94% 29   30.28        
Nov 13 10:35 NW 8 3 Fog/Mist OVC006 36 34     94% 29   30.27        
Nov 13 10:15 NNW 7 2.5 Fog/Mist OVC004 36 35     96% 30   30.27        
Nov 13 09:55 NNW 6 2 Fog/Mist OVC004 36 35     97% 31   30.27        
Nov 13 09:35 NNW 8 2.5 Fog/Mist OVC004 35 35     98% 29   30.25        
Nov 13 09:15 NNW 6 2 Fog/Mist OVC006 35 35     98% 30   30.26        
Nov 13 08:55 NW 6 2 Fog/Mist OVC006 35 34     98% 30   30.25        
Nov 13 08:35 NW 5 2 Fog/Mist OVC009 34 34     99% 30   30.24        
Nov 13 08:15 WNW 3 2 Fog/Mist OVC009 34 33     97% 31   30.24        
Nov 13 07:55 Calm 1.5 Light Snow OVC007 33 33     99%     30.22        
Nov 13 07:35 Calm 2.5 Light Snow SCT013 BKN055 OVC070 33 33     98%     30.22        
Nov 13 07:15 Calm 3 Fog/Mist SCT009 BKN065 OVC085 33 32     98%     30.21        
Nov 13 06:55 Calm 4 Light Snow SCT007 BKN013 OVC037 33 32     97%     30.21        
Nov 13 06:35 N 3 3 Light Snow SCT010 BKN023 OVC034 33 32     97% 30   30.21        
Nov 13 06:15 N 6 3 Light Snow SCT009 BKN023 OVC037 33 32     95% 28   30.2        
Nov 13 05:55 NW 5 5 Light Snow SCT009 BKN034 OVC050 34 33     95% 29   30.21        
Nov 13 05:35 NNW 5 5 Light Snow SCT011 BKN036 OVC046 34 33     94% 30   30.2        
Nov 13 05:15 NNW 5 7 Light Snow BKN046 BKN060 OVC080 35 33     92% 31   30.19        
Nov 13 04:55 N 5 10 Cloudy SCT050 OVC080 35 32     91% 31   30.17        
Nov 13 04:35 NNW 6 10 Cloudy SCT035 SCT041 OVC050 35 32     91% 30   30.18        
Nov 13 04:16 N 7 10 Cloudy SCT038 OVC048 35 32     90% 29   30.18        
Nov 13 03:55 N 7 10 Cloudy OVC048 35 33     92% 29   30.17        
Nov 13 03:35 NNW 5 10 Cloudy OVC048 35 33     92% 31   30.17        
Nov 13 03:16 N 5 10 Cloudy OVC046 35 33     93% 31   30.17        
Nov 13 02:55 Calm 10 Cloudy SCT029 OVC044 35 33     92%     30.18        
Nov 13 02:35 NNE 6 10 Cloudy BKN029 OVC044 35 33     93% 30   30.18        
Nov 13 02:15 NNE 6 7 Cloudy SCT009 OVC029 35 33     93% 30   30.18        
Nov 13 01:55 NNE 7 7 Cloudy BKN009 BKN013 OVC025 35 33     93% 29   30.18        
Nov 13 01:35 N 9 7 Cloudy SCT011 OVC025 35 33     92% 28   30.19        
Nov 13 01:15 N 6 7 Cloudy BKN019 OVC025 36 33     90% 31   30.19        
Nov 13 00:55 N 7 7 Cloudy OVC021 36 33     89% 30   30.19        
Nov 13 00:35 N 7 7 Cloudy OVC023 36 33     85% 31   30.18        
Nov 13 00:15 N 6 10 Cloudy OVC023 37 33     85% 32   30.18        
Nov 12 23:55 NNW 5 7 Cloudy OVC021 37 33     87% 33   30.19        
Nov 12 23:35 NNW 5 10 Cloudy OVC021 37 33     85% 34   30.19        
Nov 12 23:15 NNW 5 10 Cloudy OVC021 37 34     88% 33   30.19        
Nov 12 22:55 Calm 10 Cloudy OVC023 37 33     87%     30.18        
Nov 12 22:35 Calm 10 Cloudy OVC023 37 33     86%     30.19        
Nov 12 22:15 NNE 3 10 Cloudy BKN023 OVC060 37 34     89% 34   30.19        
Nov 12 21:55 Calm 10 Cloudy OVC060 37 34     87%     30.19        
Nov 12 21:35 Calm 10 Cloudy OVC060 37 34     89%     30.19        
Nov 12 21:15 Calm 10 Cloudy SCT030 OVC060 37 34     87%     30.19        
Nov 12 20:55 N 3 10 Light Snow SCT030 OVC070 37 34     86% 35   30.19        
Nov 12 20:35 Calm 10 Light Snow BKN070 OVC090 38 34     86%     30.18        
Nov 12 20:15 N 3 10 Light Snow OVC070 38 34     83% 36   30.18        
Nov 12 19:55 Calm 10 Cloudy SCT070 BKN085 OVC110 39 33     80%     30.18        
Nov 12 19:35 NNE 3 10 Cloudy SCT070 BKN085 OVC110 39 35     83% 37   30.17        
Nov 12 19:15 Calm 10 Cloudy OVC070 40 33     73%     30.18        
Nov 12 18:55 Calm 10 Cloudy OVC080 41 32     71%     30.17        
Nov 12 18:35 Calm 10 Cloudy OVC080 40 33     73%     30.16        
Nov 12 18:15 Calm 10 Cloudy OVC080 40 32     72%     30.17        
Nov 12 17:55 ENE 3 10 Cloudy SCT070 OVC080 41 32     71% 39   30.17        
Nov 12 17:35 Calm 10 Cloudy BKN075 OVC080 41 32     70%     30.17        
Nov 12 17:15 E 3 10 Cloudy OVC075 41 32     69% 40   30.17        
Nov 12 16:55 ENE 3 10 Cloudy OVC075 41 32     69% 39   30.17        
Nov 12 16:36 E 5 10 Cloudy OVC075 42 31     67% 39   30.18        
Nov 12 16:15 ESE 5 10 Cloudy OVC075 42 31     63% 39   30.19        
Nov 12 15:55 ESE 3 10 Cloudy SCT070 OVC075 42 31     63% 41   30.21        
Nov 12 15:35 Calm 10 Cloudy BKN070 OVC080 42 31     64%     30.2        
Nov 12 15:15 Calm 10 Cloudy SCT055 OVC070 42 31     64%     30.21        
Nov 12 14:55 Calm 10 Cloudy SCT055 OVC070 42 30     62%     30.21        
Nov 12 14:35 Calm 10 Cloudy SCT055 OVC070 42 30     62%     30.22        
Nov 12 14:15 Calm 10 Cloudy OVC070 42 30     63%     30.22        
Nov 12 13:55 Calm 10 Cloudy OVC070 41 30     64%     30.23        
Nov 12 13:35 Calm 10 Cloudy OVC070 41 29     61%     30.22        
Nov 12 13:15 NNE 3 10 Cloudy OVC065 41 29     63% 39   30.22        
Nov 12 12:55 N 7 10 Cloudy BKN065 OVC080 41 29     62% 37   30.24        
Nov 12 12:35 Calm 10 Cloudy SCT065 BKN080 OVC110 42 29     60%     30.24        
Nov 12 12:15 Calm 10 Mostly Cloudy SCT090 BKN110 41 29     61%     30.22        
Nov 12 11:55 ESE 3 10 Cloudy SCT070 BKN090 OVC120 40 29     63% 38   30.22        
Nov 12 11:35 Calm 10 Cloudy OVC070 39 28     64%     30.23        
Nov 12 11:15 Calm 10 Cloudy OVC070 39 29     68%     30.24        
Nov 12 10:55 Calm 10 Cloudy OVC070 38 29     70%     30.24        
Nov 12 10:35 Calm 10 Cloudy OVC080 37 27     69%     30.25        
Nov 12 10:15 Calm 10 Cloudy OVC080 36 28     73%     30.25        
Nov 12 09:55 Calm 10 Cloudy BKN080 OVC100 35 29     79%     30.26        
Nov 12 09:35 Calm 10 Cloudy OVC080 33 29     88%     30.26        
Nov 12 09:15 Calm 10 Cloudy BKN080 OVC095 33 29     85%     30.26        
Nov 12 08:55 Calm 10 Cloudy OVC100 32 29     90%     30.27        
Nov 12 08:35 Calm 10 Cloudy OVC110 32 29     90%     30.28        
Nov 12 08:15 Calm 10 Cloudy SCT095 OVC120 31 26     79%     30.29        
Nov 12 07:55 Calm 10 Mostly Cloudy BKN120 29 27     90%     30.28        
Nov 12 07:35 Calm 10 Partly Cloudy SCT120 29 27     92%     30.28        
Nov 12 07:15 Calm 10 Clear CLR 28 26     91%     30.29        
Nov 12 06:55 Calm 10 Clear CLR 28 25     86%     30.29        
Nov 12 06:35 Calm 10 Partly Cloudy SCT120 29 25     84%     30.28        
Nov 12 06:15 Calm 10 Clear CLR 29 25     84%     30.28        
Nov 12 05:55 Calm 10 Clear CLR 28 25     88%     30.28        
Nov 12 05:35 Calm 10 Clear CLR 27 24     88%     30.28        
Nov 12 05:15 Calm 10 Clear CLR 29 24     80%     30.29        
Nov 12 04:55 Calm 10 Clear CLR 28 25     86%     30.28        
Nov 12 04:35 Calm 10 Clear CLR 28 25     88%     30.28        
Nov 12 04:15 Calm 10 Clear CLR 27 25     89%     30.28        
Nov 12 03:55 Calm 10 Clear CLR 30 24     75%     30.29        
Nov 12 03:35 Calm 10 Clear CLR 32 22     67%     30.29        
Nov 12 03:15 Calm 10 Clear CLR 31 22     70%     30.28        
Nov 12 02:55 Calm 10 Clear CLR 28 24     82%     30.28        
Nov 12 02:35 Calm 10 Clear CLR 28 24     82%     30.28        
Nov 12 02:15 Calm 10 Clear CLR 30 24     78%     30.29        
Nov 12 01:55 Calm 10 Clear CLR 30 24     79%     30.28        
Nov 12 01:35 Calm 10 Partly Cloudy SCT120 31 24     74%     30.28        
Nov 12 01:15 Calm 10 Mostly Cloudy BKN120 32 24     71%     30.28        
Nov 12 00:55 Calm 10 Partly Cloudy SCT120 32 24     73%     30.29        
Nov 12 00:35 Calm 10 Partly Cloudy SCT110 31 24     74%     30.29        
Nov 12 00:15 ESE 3 10 Partly Cloudy SCT110 33 23     68% 29   30.29        
Nov 11 23:55 Calm 10 Clear CLR 32 26     78%     30.29        
Nov 11 23:35 Calm 10 Clear CLR 31 26     81%     30.29        
Nov 11 23:15 Calm 10 Partly Cloudy SCT120 32 24     72%     30.29        
Nov 11 22:55 Calm 10 Partly Cloudy SCT120 31 25     77%     30.29        
Nov 11 22:35 Calm 10 Clear CLR 31 24     75%     30.29        
Nov 11 22:15 Calm 10 Clear CLR 32 24     73%     30.3        
Nov 11 21:55 Calm 10 Clear CLR 32 24     72%     30.3        
Nov 11 21:35 Calm 10 Clear CLR 32 23     70%     30.29        
Nov 11 21:15 Calm 10 Clear CLR 35 22     61%     30.29        
Nov 11 20:55 Calm 10 Partly Cloudy SCT120 33 24     68%     30.29        
Nov 11 20:35 Calm 10 Partly Cloudy SCT120 33 24     69%     30.29        
Nov 11 20:15 Calm 10 Partly Cloudy SCT120 36 24     63%     30.29        
Nov 11 19:55 Calm 10 Partly Cloudy SCT120 37 22     54%     30.29        
Nov 11 19:35 Calm 10 Partly Cloudy SCT120 37 22     53%     30.29        
Nov 11 19:15 Calm 10 Partly Cloudy SCT110 38 21     50%     30.29        
Nov 11 18:55 Calm 10 Mostly Cloudy BKN110 38 21     50%     30.28        
Nov 11 18:35 Calm 10 Mostly Cloudy BKN110 40 21     47%     30.29        
Nov 11 18:15 SE 5 10 Cloudy OVC110 40 21     46% 37   30.27        
Nov 11 17:55 Calm 10 Cloudy OVC110 39 22     50%     30.28        
Nov 11 17:35 Calm 10 Cloudy OVC110 41 21     45%     30.28        
Nov 11 17:15 Calm 10 Mostly Cloudy BKN120 40 21     46%     30.28        
Nov 11 16:55 Calm 10 Mostly Cloudy BKN120 42 19     40%     30.29        
Nov 11 16:35 S 3 10 Mostly Cloudy BKN120 42 19     40% 40   30.29        
Nov 11 16:15 SSE 6 10 Partly Cloudy SCT090 SCT110 43 20     39% 39   30.29        
Nov 11 15:55 SSE 5 10 Partly Cloudy SCT110 44 20     37% 41   30.29        
Nov 11 15:35 S 6 10 Partly Cloudy SCT110 44 20     38% 41   30.28        
Nov 11 15:15 E 3 10 Mostly Cloudy BKN110 44 19     37% 42   30.28        
Nov 11 14:55 SE 6 10 Partly Cloudy SCT100 44 19     37% 41   30.29        
Nov 11 14:35 S 6 10 Cloudy OVC100 44 20     38% 41   30.29        
Nov 11 14:15 S 3 10 Mostly Cloudy BKN100 44 20     38% 42   30.29        
Nov 11 13:55 SW 5 10 Partly Cloudy SCT100 42 20     41% 40   30.3        
Nov 11 13:35 SE 5 10 Partly Cloudy SCT100 42 20     41% 39   30.31        
Nov 11 13:15 SE 6 10 Clear CLR 42 21     43% 38   30.32        
Nov 11 12:55 SE 8 10 Clear CLR 41 21     44% 36   30.34        
Nov 11 12:35 S 7 10 Mostly Cloudy BKN110 40 20     43% 36   30.34        
Nov 11 12:15 S 9 10 Mostly Cloudy BKN110 40 20     45% 34   30.34        
Nov 11 11:55 SE 3 10 Mostly Cloudy BKN110 37 19     47% 35   30.35        
Nov 11 11:35 SSE 3 10 Cloudy OVC110 37 20     50% 35   30.36        
Nov 11 11:15 S 7 10 Cloudy OVC110 37 20     50% 31   30.38        
Nov 11 10:55 SE 8 10 Cloudy OVC110 36 19     51% 29   30.38        
Nov 11 10:35 S 7 10 Cloudy OVC110 35 20     55% 29   30.39        
Nov 11 10:15 SSE 3 10 Partly Cloudy SCT110 34 21     58% 31   30.4        
Nov 11 09:55 SSE 5 10 Partly Cloudy SCT110 33 22     63% 29   30.4        
Nov 11 09:35 SW 5 10 Partly Cloudy SCT110 31 24     73% 27   30.4        
Nov 11 09:15 ESE 7 10 Clear CLR 29 23     77% 23   30.36        
Nov 11 08:55 ESE 6 10 Clear CLR 28 23     81% 22   30.39        
Nov 11 08:35 Calm 10 Clear CLR 26 21     82%     30.41        
Nov 11 08:15 Calm 10 Clear CLR 25 21     87%     30.4        
Nov 11 07:55 SE 3 10 Clear CLR 22 19     88% 18   30.39        
Nov 11 07:35 Calm 10 Clear CLR 22 19     90%     30.4        
Nov 11 07:15 Calm 10 Clear CLR 22 18     86%     30.39        
Nov 11 06:55 Calm 10 Clear CLR 22 18     84%     30.39        
Nov 11 06:35 Calm 10 Clear CLR 23 18     81%     30.39        
Nov 11 06:15 Calm 10 Clear CLR 23 18     82%     30.38        
Nov 11 05:55 ESE 3 10 Clear CLR 23 18     83% 19   30.38        
Nov 11 05:35 Calm 10 Clear CLR 23 19     84%     30.38        
Nov 11 05:15 Calm 10 Clear CLR 22 20     93%     30.39        
Nov 11 04:55 Calm 10 Clear CLR 22 19     91%     30.38        
Nov 11 04:35 Calm 10 Clear CLR 22 19     88%     30.39        
Nov 11 04:15 Calm 10 Clear CLR 22 19     88%     30.4        
Nov 11 03:55 Calm 10 Clear CLR 23 18     83%     30.4        
Nov 11 03:35 Calm 10 Clear CLR 24 19     81%     30.4        
Nov 11 03:15 Calm 10 Clear CLR 24 19     81%     30.39        
Nov 11 02:55 Calm 10 Clear CLR 24 19     82%     30.39        
Nov 11 02:35 ESE 3 10 Clear CLR 22 20     91% 18   30.39        
Nov 11 02:15 Calm 10 Clear CLR 23 20     89%     30.39        
Nov 11 01:55 Calm 10 Clear CLR 23 20     87%     30.39        
Nov 11 01:35 Calm 10 Clear CLR 23 20     87%     30.39        
Nov 11 01:15 Calm 10 Clear CLR 23 20     89%     30.39        
Nov 11 00:55 Calm 10 Clear CLR 23 20     89%     30.39        
Nov 11 00:35 Calm 10 Clear CLR 23 20     89%     30.39        
Nov 11 00:15 Calm 10 Clear CLR 24 19     81%     30.39        
Nov 10 23:55 Calm 10 Clear CLR 24 18     78%     30.39        
Nov 10 23:35 Calm 10 Clear CLR 26 18     73%     30.39        
Nov 10 23:15 Calm 10 Clear CLR 25 19     79%     30.38        
Nov 10 22:55 Calm 10 Clear CLR 25 19     79%     30.38        
Nov 10 22:35 Calm 10 Clear CLR 26 20     80%     30.39        
Nov 10 22:15 Calm 10 Clear CLR 25 20     83%     30.38        
Nov 10 21:55 Calm 10 Clear CLR 26 19     77%     30.38        
Nov 10 21:35 Calm 10 Clear CLR 26 19     75%     30.39        
Nov 10 21:15 Calm 10 Clear CLR 27 20     74%     30.39        
Nov 10 20:55 Calm 10 Clear CLR 27 19     70%     30.39        
Nov 10 20:35 Calm 10 Clear CLR 27 18     68%     30.39        
Nov 10 20:15 Calm 10 Clear CLR 28 20     71%     30.39        
Nov 10 19:55 Calm 10 Clear CLR 29 18     65%     30.39        
Nov 10 19:35 Calm 10 Clear CLR 30 19     64%     30.39        
Nov 10 19:15 Calm 10 Clear CLR 30 19     63%     30.39        
Nov 10 18:55 Calm 10 Clear CLR 30 18     61%     30.38        
Nov 10 18:35 Calm 10 Clear CLR 30 17     59%     30.38        
Nov 10 18:15 Calm 10 Clear CLR 31 16     53%     30.38        
Nov 10 17:55 Calm 10 Clear CLR 32 16     51%     30.38        
Nov 10 17:35 Calm 10 Clear CLR 32 16     51%     30.38        
Nov 10 17:15 N 3 10 Clear CLR 32 15     49% 29   30.38        
Nov 10 16:55 NNE 5 10 Clear CLR 33 16     49% 28   30.38        
Nov 10 16:35 N 5 10 Clear CLR 34 15     46% 29   30.38        
Nov 10 16:15 NNE 5 10 Clear CLR 34 15     45% 29   30.39        
Nov 10 15:55 Calm 10 Clear CLR 35 16     45%     30.4        
Nov 10 15:35 N 6 10 Clear CLR 35 15     45% 29   30.4        
Nov 10 15:15 W 7 10 Clear CLR 35 15     44% 29   30.4        
Nov 10 14:55 NNW 8 10 Clear CLR 34 15     44% 28   30.4        
Nov 10 14:35 W 9 10 Clear CLR 35 15     45% 27   30.4        
Nov 10 14:15 W 9 10 Clear CLR 35 16     46% 27   30.4        
Nov 10 13:55 NW 8 10 Clear CLR 34 16     46% 28   30.39        
Nov 10 13:35 WSW 8 10 Clear CLR 33 14     45% 26   30.4        
Nov 10 13:15 W 7 10 Clear CLR 33 15     46% 27   30.41        
Nov 10 12:55 W 7 10 Clear CLR 32 15     47% 26   30.41        
Nov 10 12:35 W 9 10 Clear CLR 32 15     48% 24   30.42        
Nov 10 12:15 WNW 6 10 Clear CLR 31 14     48% 26   30.42        
Nov 10 11:55 W 7 10 Clear CLR 31 14     49% 24   30.43        
Nov 10 11:35 W 6 10 Clear CLR 31 14     49% 25   30.43        
Nov 10 11:15 W 8 10 Clear CLR 29 13     50% 22   30.43        
Nov 10 10:55 W 11 10 Clear CLR 29 13     50% 19   30.43        
Nov 10 10:35 W 10 10 Clear CLR 29 14     53% 19   30.43        
Nov 10 10:15 W 9 10 Clear CLR 28 13     53% 19   30.42        
Nov 10 09:55 WNW 9 10 Clear CLR 27 12     53% 18   30.42        
Nov 10 09:35   10 Clear CLR 27 12     54%     30.41        
Nov 10 09:15 W 8 10 Clear CLR 26 12     55% 17   30.41        
Nov 10 08:55 WNW 11 10 Clear CLR 25 11     56% 14   30.4        
Nov 10 08:35 W 11 10 Clear CLR 25 11     55% 14   30.39        
Nov 10 08:15 WNW 9 10 Clear CLR 24 10     56% 14   30.38        
Nov 10 07:55 WNW 8 10 Clear CLR 24 12     59% 15   30.37        
Nov 10 07:35 WNW 7 10 Clear CLR 24 12     60% 15   30.36        
Nov 10 07:15 WNW 8 10 Clear CLR 23 11     59% 14   30.35        
Nov 10 06:55 WNW 8 10 Clear CLR 24 10     56% 15   30.34        
Nov 10 06:35 W 11 10 Partly Cloudy SCT033 24 14     63% 14   30.33        
Nov 10 06:15 WNW 10 10 Partly Cloudy SCT033 SCT039 25 15     65% 15   30.32        
Nov 10 05:55   10 Cloudy SCT029 OVC038 26 15     64%     30.31        
Nov 10 05:35 WNW 15 10 Cloudy BKN026 OVC031 27 18     66% 16   30.29        
Nov 10 05:15 WNW 11 10 Cloudy BKN024 BKN029 OVC035 29 21     71% 20   30.27        
Nov 10 04:55 W 13 10 Cloudy BKN024 OVC031 29 22     73% 19   30.26        
Nov 10 04:35 WNW 10 10 Cloudy BKN024 BKN033 OVC043 29 22     73% 20   30.25        
Nov 10 04:15 WNW 14 10 Light Snow SCT021 OVC026 29 24     79% 19   30.24        
Nov 10 03:55 NW 8 10 Light Snow SCT020 OVC031 30 24     80% 22   30.24        
Nov 10 03:35 WNW 8 10 Light Snow OVC033 30 23     75% 23   30.23        
Nov 10 03:15 WNW 13 10 Light Snow OVC033 31 21     66% 22   30.22        
Nov 10 02:55 W 10 10 Cloudy SCT033 BKN039 OVC060 31 22     67% 23   30.21        
Nov 10 02:35 W 6 10 Cloudy SCT028 BKN055 OVC070 31 23     73% 25   30.21        
Nov 10 02:15 W 6 10 Mostly Cloudy SCT028 BKN038 SCT049 31 23     71% 25   30.21        
Nov 10 01:55 WNW 5 10 Mostly Cloudy SCT027 SCT035 BKN045 31 23     72% 26   30.21        
Nov 10 01:35 W 8 10 Mostly Cloudy BKN027 BKN037 BKN043 31 22     68% 24   30.2        
Nov 10 01:15 W 11 10 Mostly Cloudy SCT029 SCT034 BKN042 32 22     67% 23   30.2        
Nov 10 00:55 W 11 10 Clear CLR 32 23     70% 23   30.2        
Nov 10 00:35 WNW 9 10 Partly Cloudy SCT034 32 23     70% 24   30.2        
Nov 10 00:15 W 7 10 Partly Cloudy SCT034 32 24     71% 26   30.19        
Nov 09 23:55 W 9 10 Partly Cloudy SCT031 32 24     71% 24   30.19        
Nov 09 23:35 W 10 10 Mostly Cloudy SCT033 BKN055 32 24     70% 24   30.19        
Nov 09 23:15 W 11 10 Cloudy BKN038 OVC055 33 24     69% 24   30.18        
Nov 09 22:55 WNW 14 10 Light Snow OVC033 33 25     70% 24   30.19        
Nov 09 22:35 W 14 7 Light Snow OVC033 33 25     73% 23   30.19        
Nov 09 22:15   10 Cloudy OVC034 34 23     63%     30.18        
Nov 09 21:55   10 Cloudy SCT027 OVC036 35 24     64%     30.17        
Nov 09 21:35   10 Cloudy OVC027 35 27     72%     30.17        
Nov 09 21:15 WNW 14 10 Cloudy BKN029 OVC035 35 27     72% 26   30.16        
Nov 09 20:55 W 15 10 Cloudy BKN027 OVC033 36 27     71% 26   30.16        
Nov 09 20:35 WNW 13 10 Cloudy BKN029 OVC035 36 28     71% 28   30.14        
Nov 09 20:15 W 14 10 Cloudy BKN024 OVC033 36 28     70% 28   30.14        
Nov 09 19:55 WNW 15 10 Cloudy OVC020 36 30     77% 27   30.14        
Nov 09 19:35   10 Cloudy BKN018 OVC025 37 31     79%     30.13        
Nov 09 19:15   10 Cloudy SCT018 OVC027 38 32     78%     30.12        
Nov 09 18:55 W 15 10 Cloudy BKN020 BKN026 OVC033 38 33     81% 30   30.1        
Nov 09 18:35 WNW 14 10 Cloudy BKN020 BKN026 OVC035 38 34     83% 30   30.1        
Nov 09 18:15 WNW 13 10 Cloudy BKN018 OVC025 40 34     79% 32   30.09        
Nov 09 17:55 WNW 11 10 Cloudy OVC024 40 34     77% 34   30.08        
Nov 09 17:35   10 Cloudy BKN021 OVC028 41 34     76%     30.07        
Nov 09 17:15 W 13 10 Cloudy OVC024 42 36     78% 35   30.06        
Nov 09 16:55 W 10 10 Cloudy BKN024 BKN033 OVC040 43 36     76% 37   30.05        
Nov 09 16:35 WSW 9 10 Cloudy SCT026 BKN032 OVC040 43 36     75% 38   30.05        
Nov 09 16:15 W 9 10 Cloudy OVC032 43 36     74% 38   30.05        
Nov 09 15:56 WSW 11 10 Cloudy SCT024 BKN034 OVC040 44 35     71% 38   30.04        
Nov 09 15:35 W 10 10 Cloudy SCT024 BKN033 OVC042 44 36     74% 38   30.04        
Nov 09 15:15 W 11 10 Cloudy SCT021 BKN025 OVC048 44 36     74% 39   30.03        
Nov 09 14:55   10 Cloudy BKN021 BKN029 OVC048 45 38     74%     30.02        
Nov 09 14:35 W 9 10 Cloudy BKN019 BKN024 OVC031 44 38     80% 39   30.02        
Nov 09 14:15 W 8 10 Cloudy OVC017 43 38     82% 38   30.02        
Nov 09 13:55 W 8 10 Cloudy BKN015 OVC020 44 39     81% 40   30.02        
Nov 09 13:35 W 9 10 Cloudy BKN011 OVC019 43 39     86% 37   30.02        
Nov 09 13:16 W 11 10 Cloudy OVC011 42 39     86% 36   30.02        
Nov 09 12:55 W 7 10 Cloudy OVC007 42 39     90% 37   30.02       0
Nov 09 12:35 W 9 7 Cloudy OVC007 41 39     94% 35   30.03        
Nov 09 12:15 W 8 7 Cloudy OVC007 40 38     93% 35   30.03        
Nov 09 11:55 WNW 8 7 Cloudy OVC007 40 38     94% 34   30.03        
Nov 09 11:35 W 7 10 Cloudy OVC007 39 38     94% 34   30.03        
Nov 09 11:15 W 6 10 Cloudy OVC007 39 37     95% 34   30.03        
Nov 09 10:55 WNW 3 7 Cloudy OVC007 38 37     95% 36   30.02        
Nov 09 10:35 WNW 5 7 Cloudy OVC007 38 37     96% 35   30.04        
Nov 09 10:15 Calm 10 Cloudy OVC007 38 36     93%     30.01        
Nov 09 09:55 W 3 10 Cloudy OVC009 38 37     95% 36   30.03     0  
Nov 09 09:35 Calm 7 Cloudy OVC007 38 36     95%     30.02        
Nov 09 09:15 NNW 5 7 Cloudy BKN007 OVC011 38 37     96% 34   30.01        
Nov 09 08:55 N 3 5 Fog/Mist BKN007 OVC012 37 37     97% 35   30.01   0    
Nov 09 08:35 NNW 3 4 Light Snow BKN005 OVC009 37 37     97% 35   30.02   0    
Nov 09 08:15 N 5 2.5 Light Snow BKN005 OVC011 37 37     98% 34   30.01   0    
Nov 09 07:55 Calm 4 Light Snow OVC007 37 36     97%     30.04   0    
Nov 09 07:35 NNE 6 5 Light Snow OVC007 37 36     97% 32   30.01        
Nov 09 07:15 N 6 5 Light Snow OVC007 37 36     95% 33   30.01        
Nov 09 06:55 N 6 10 Cloudy OVC007 37 36     97% 33   30.02       0
Nov 09 06:35 N 5 10 Cloudy OVC007 37 36     97% 34   30.02        
Nov 09 06:15 NNE 7 10 Cloudy OVC007 37 36     97% 32   30.02        
Nov 09 05:55 NE 3 10 Cloudy OVC007 37 36     96% 35   30.03        
Nov 09 05:35 ENE 5 10 Cloudy OVC007 37 36     97% 34   30.02        
Nov 09 05:15 NE 5 7 Cloudy OVC007 37 37     97% 34   30.04        
Nov 09 04:55 ENE 6 5 Fog/Mist OVC005 37 37     97% 33   30.04   0    
Nov 09 04:35 NE 5 4 Light Snow OVC005 37 37     98% 34   30.06   0    
Nov 09 04:15 NE 7 4 Fog/Mist BKN007 OVC010 37 37     98% 32   30.07   0    
Nov 09 03:55 N 8 2.5 Light Snow BKN007 OVC032 38 37     97% 32   30.09   0 0  
Nov 09 03:35 NNE 10 5 Fog/Mist SCT009 SCT015 OVC034 38 37     97% 31   30.09   0    
Nov 09 03:15 NNE 7 4 Light Snow OVC034 38 36     94% 33   30.09   0    
Nov 09 02:55 NNW 7 7 Light Snow OVC036 39 36     91% 34   30.11   0    
Nov 09 02:35 NNE 6 10 Cloudy OVC038 39 36     89% 35   30.09   0    
Nov 09 02:15 NE 7 7 Light Snow OVC042 39 36     87% 34   30.09   0    
Nov 09 01:55 NNE 7 10 Cloudy OVC044 39 35     85% 34   30.1        
Nov 09 01:35 NE 5 10 Light Snow OVC050 40 35     80% 37   30.11        
Nov 09 01:15 NNE 5 10 Light Snow OVC050 41 33     75% 37   30.12        
Nov 09 00:55 NE 6 10 Cloudy OVC060 41 32     70% 37   30.13        
Nov 09 00:35 ENE 7 10 Cloudy OVC060 41 32     70% 37   30.12        
Nov 09 00:15 ENE 7 10 Cloudy OVC060 41 32     70% 37   30.15        
Nov 08 23:55 E 5 10 Cloudy OVC060 41 32     70% 38   30.16        
Nov 08 23:35 ENE 6 10 Cloudy SCT060 BKN100 OVC120 41 32     70% 37   30.17        
Nov 08 23:15 E 7 10 Mostly Cloudy BKN110 41 32     70% 36   30.17        
Nov 08 22:55 ENE 6 10 Cloudy OVC110 41 32     70% 37   30.18        
Nov 08 22:35 ENE 5 10 Cloudy OVC100 41 32     71% 37   30.19        
Nov 08 22:15 NE 3 10 Cloudy BKN100 OVC120 41 32     71% 39   30.21        
Nov 08 21:55 ENE 5 10 Cloudy SCT100 OVC120 40 32     72% 37   30.22        
Nov 08 21:35 ENE 3 10 Mostly Cloudy BKN120 40 32     72% 38   30.23        
Nov 08 21:15 E 6 10 Partly Cloudy SCT110 40 32     72% 36   30.23        
Nov 08 20:55 ENE 6 10 Mostly Cloudy BKN120 41 32     70% 37   30.23        
Nov 08 20:35 ENE 6 10 Cloudy SCT100 OVC120 41 32     70% 37   30.24        
Nov 08 20:15 ENE 6 10 Cloudy OVC100 41 32     70% 37   30.25        
Nov 08 19:55 E 6 10 Cloudy OVC110 41 32     70% 37   30.24        
Nov 08 19:35 E 6 10 Cloudy OVC100 41 32     70% 37   30.26        
Nov 08 19:15 ENE 6 10 Mostly Cloudy BKN100 41 32     70% 37   30.26        
Nov 08 18:55 NE 3 10 Mostly Cloudy BKN110 41 32     71% 39   30.26        
Nov 08 18:35 ENE 5 10 Cloudy OVC110 41 32     69% 38   30.27        
Nov 08 18:15 ENE 5 10 Cloudy OVC110 41 32     69% 38   30.28        
Nov 08 17:55 ENE 5 10 Cloudy OVC110 42 32     68% 39   30.28        
Nov 08 17:35 ENE 6 10 Cloudy OVC110 42 32     68% 38   30.29        
Nov 08 17:15 NE 3 10 Cloudy OVC110 42 32     68% 40   30.29        
Nov 08 16:55 NE 5 10 Cloudy OVC110 42 32     68% 39   30.29        
Nov 08 16:35 E 5 10 Cloudy OVC110 42 32     67% 39   30.3        
Nov 08 16:15 E 5 10 Cloudy OVC110 42 32     67% 39   30.3        
Nov 08 15:55 ENE 5 10 Cloudy OVC110 42 32     67% 39   30.31        
Nov 08 15:35 ENE 5 10 Cloudy OVC120 42 32     66% 39   30.31        
Nov 08 15:15 ENE 7 10 Mostly Cloudy BKN120 42 32     67% 37   30.31        
Nov 08 14:55 ENE 7 10 Cloudy OVC120 42 32     67% 37   30.31        
Nov 08 14:35 NE 3 10 Cloudy OVC120 42 32     68% 40   30.32        
Nov 08 14:15 ENE 7 10 Cloudy OVC120 42 32     67% 38   30.32        
Nov 08 13:55 E 8 10 Mostly Cloudy BKN120 42 32     67% 37   30.32        
Nov 08 13:35 E 6 10 Partly Cloudy SCT120 42 32     68% 38   30.32        
Nov 08 13:15 NNE 8 10 Partly Cloudy SCT120 42 32     69% 36   30.32        
Nov 08 12:55 NNE 9 10 Partly Cloudy SCT120 41 32     69% 36   30.33        
Nov 08 12:35 NNE 7 10 Partly Cloudy SCT120 41 32     69% 37   30.33        
Nov 08 12:15 ENE 5 10 Partly Cloudy SCT120 40 31     69% 37   30.34        
Nov 08 11:56 ENE 6 10 Clear CLR 40 31     70% 36   30.35        
Nov 08 11:35 NE 6 10 Clear CLR 40 31     72% 36   30.37        
Nov 08 11:15 ENE 5 10 Partly Cloudy SCT022 39 31     73% 36   30.37        
Nov 08 10:55 NE 7 10 Partly Cloudy SCT021 39 31     73% 34   30.36        
Nov 08 10:35 ENE 6 10 Clear CLR 38 31     76% 33   30.37        
Nov 08 10:15 NNE 5 10 Clear CLR 38 32     80% 34   30.37        
Nov 08 09:55 NNE 6 10 Clear CLR 36 32     84% 32   30.38        
Nov 08 09:35 NNE 3 10 Clear CLR 36 32     85% 33   30.38        
Nov 08 09:15 NNE 3 10 Clear CLR 36 32     85% 33   30.38        
Nov 08 08:55 NNE 5 10 Clear CLR 34 32     91% 30   30.37        
Nov 08 08:35 NE 3 10 Clear CLR 32 31     94% 29   30.36        
Nov 08 08:15 ENE 3 10 Clear CLR 32 31     96% 29   30.34        
Nov 08 07:55 NNE 3 10 Clear CLR 31 30     95% 28   30.34        
Nov 08 07:35 Calm 7 Clear CLR 30 30     99%     30.34        
Nov 08 07:15 Calm 7 Clear CLR 30 29     97%     30.33        
Nov 08 06:55 Calm 10 Clear CLR 31 30     95%     30.33        
Nov 08 06:35 N 3 10 Clear CLR 31 30     96% 27   30.31        
Nov 08 06:15 Calm 10 Clear CLR 30 30     99%     30.31        
Nov 08 05:55 NNE 3 10 Clear CLR 31 30     96% 28   30.31        
Nov 08 05:35 Calm 10 Clear CLR 31 30     94%     30.31        
Nov 08 05:15 Calm 10 Clear CLR 32 30     93%     30.31        
Nov 08 04:55 Calm 10 Clear CLR 32 30     93%     30.31        
Nov 08 04:35 Calm 10 Clear CLR 32 30     92%     30.3        
Nov 08 04:15 NNE 3 10 Clear CLR 33 30     91% 29   30.29        
Nov 08 03:55 N 3 10 Clear CLR 33 31     92% 30   30.29        
Nov 08 03:35 Calm 10 Clear CLR 32 31     94%     30.29        
Nov 08 03:15 NNE 3 10 Clear CLR 33 31     92% 29   30.29        
Nov 08 02:55 NNE 5 10 Clear CLR 33 31     91% 29   30.28        
Nov 08 02:35 N 5 10 Clear CLR 33 31     92% 29   30.28        
Nov 08 02:15 N 5 10 Clear CLR 34 31     89% 30   30.28        
Nov 08 01:55 N 5 10 Clear CLR 35 32     89% 31   30.28        
Nov 08 01:35 NNE 5 10 Clear CLR 35 32     89% 31   30.28        
Nov 08 01:15 N 3 10 Clear CLR 35 32     87% 33   30.27        
Nov 08 00:55 N 5 10 Clear CLR 36 32     85% 32   30.28        
Nov 08 00:35 N 6 10 Clear CLR 37 32     83% 32   30.27        
Nov 08 00:15 N 6 10 Clear CLR 37 32     81% 33   30.26        
Nov 07 23:55 N 6 10 Clear CLR 38 32     79% 33   30.26        
Nov 07 23:35 N 6 10 Clear CLR 38 32     77% 34   30.26        
Nov 07 23:15 N 6 10 Clear CLR 39 32     75% 35   30.25        
Nov 07 22:55 N 5 10 Clear CLR 40 32     72% 37   30.24        
Nov 07 22:35 N 6 10 Clear CLR 40 31     71% 36   30.23        
Nov 07 22:15 N 5 10 Clear CLR 40 31     70% 37   30.22        
Nov 07 21:55 Calm 10 Clear CLR 39 32     75%     30.22        
Nov 07 21:35 Calm 10 Clear CLR 42 31     64%     30.22        
Nov 07 21:15 Calm 10 Clear CLR 44 30     59%     30.22        
Nov 07 20:55 Calm 10 Clear CLR 43 31     63%     30.21        
Nov 07 20:35 Calm 10 Clear CLR 43 31     61%     30.21        
Nov 07 20:16 NNW 6 10 Clear CLR 41 32     69% 37   30.2        
Nov 07 19:55 Calm 10 Clear CLR 43 32     66%     30.2        
Nov 07 19:35 Calm 10 Clear CLR 44 31     61%     30.2        
Nov 07 19:15 Calm 10 Clear CLR 45 31     57%     30.19        
Nov 07 18:55 Calm 10 Clear CLR 47 30     51%     30.19        
Nov 07 18:35 NW 3 10 Clear CLR 48 29     48% 48   30.19        
Nov 07 18:15 NW 3 10 Clear CLR 48 30     49% 48   30.18        
Nov 07 17:55 WNW 5 10 Clear CLR 50 30     46% 48   30.18        
Nov 07 17:35 WNW 3 10 Clear CLR 50 30     45%     30.17        
Nov 07 17:15 W 5 10 Clear CLR 51 30     44%     30.17        
Nov 07 16:55 W 5 10 Clear CLR 52 30     44%     30.16        
Nov 07 16:35 W 9 10 Clear CLR 52 30     42%     30.16        
Nov 07 16:15 W 9 10 Clear CLR 53 30     41%     30.16        
Nov 07 15:55 W 7 10 Clear CLR 53 31     42%     30.14        
Nov 07 15:35 WNW 9 10 Clear CLR 53 31     42%     30.14        
Nov 07 15:15 WNW 10 10 Clear CLR 54 32     44%     30.15        
Nov 07 14:55 WSW 9 10 Clear CLR 53 34     48%     30.14        
Nov 07 14:35 W 10 10 Clear CLR 53 33     45%     30.15        
Nov 07 14:15 W 9 10 Clear CLR 53 32     46%     30.14        
Nov 07 13:55 W 8 10 Clear CLR 52 33     47%     30.15        
Nov 07 13:35 WSW 11 10 Clear CLR 52 33     48%     30.16        
Nov 07 13:15 W 9 10 Clear CLR 52 32     48%     30.17        
Nov 07 12:55 SW 6 10 Clear CLR 51 33     50%     30.17        
Nov 07 12:35 SW 9 10 Clear CLR 50 33     51%     30.18        
Nov 07 12:15 SW 9 10 Clear CLR 50 35     56%     30.19        
Nov 07 11:55 WSW 9 10 Clear CLR 49 34     57% 45   30.19        
Nov 07 11:35 WSW 11 10 Clear CLR 49 33     55% 44   30.2        
Nov 07 11:15 WSW 9 10 Clear CLR 47 36     66% 43   30.2        
Nov 07 10:55 W 7 10 Clear CLR 46 36     67% 42   30.19        
Nov 07 10:35 WSW 6 10 Clear CLR 46 36     67% 43   30.19        
May 15 12:56 SW 9 10 Clear CLR 85 60     44%   85 29.97        
May 15 09:56 W 6 10 Clear CLR 78 60     53%   78          
May 15 09:37 WSW 6 10 Clear CLR 78 60     55%   78 29.94        
May 15 09:16 WSW 8 10 Clear CLR 77 60     56%   77 29.94        
May 15 07:16 WSW 6 10 Clear CLR 71 64     80%   72          
May 15 05:57 SW 6 10 Partly Cloudy SCT090 72 64     75%   73          
May 15 02:57 SW 6 10 Clear CLR 74 63     69%   74          
May 15 01:57 SSW 3 10 Clear CLR 74 63     67%   75 29.9        
May 15 01:16 SSW 3 10 Clear CLR 75 62     65%   75          
May 14 15:56 NE 5 10 Partly Cloudy SCT060 85 65     52%   87          
May 14 11:56 WNW 11 10 Clear CLR 85 64     50%   86          
May 14 09:37 WSW 7 10 Clear CLR 79 65     63%   79          
May 14 06:57 SW 5 10 Clear CLR 69 63     81%              
May 14 06:36 SW 5 10 Clear   69 63     81%     30        
May 13 17:17 SW 14 10 Mostly Cloudy SCT050 BKN070 BKN085 86 63     47%   87 29.98        
May 13 16:37 WSW 13 10 Partly Cloudy SCT050 SCT065 SCT085 87 63     46%   88 29.98        
May 13 11:37   10 Partly Cloudy SCT047 82 63     53%   83 30.04        
May 13 05:57 SW 5 10 Clear CLR 67 62     83%     30.03        
May 13 04:36 Calm 10 Clear CLR 66 62     88%              
May 13 00:57 SSW 5 10 Clear CLR 73 63     71%   73          
May 12 20:17 Calm 10 Clear CLR 80 61     54%   80          
May 12 19:56 S 5 10 Clear CLR 80 61     53%   81 30        
May 12 13:17   10 Partly Cloudy SCT047 83 61     48%   83 30.05        
May 12 09:17 WSW 13 10 Clear CLR 75 60     59%   75          
Notice The following observation data may not be complete
May 12 07:37   10 Clear CLR          %              
May 12 02:17 SW 3 10 Clear CLR 71 59     68%   70          
May 12 00:56 Calm 10 Clear CLR 73 59     60%   73 30.01        
May 11 21:56 Calm 5 Haze CLR 76 58     53%   76          
May 11 20:17 SSW 5 10 Clear CLR 80 56     45%   79          
May 11 19:56 SW 5 10 Clear CLR 81 56     43%   81 29.95        
May 11 17:56 SW 10 10 Clear CLR 85 55     37%   84 29.95        
May 11 17:37   10 Clear CLR 85 56     37%   83 29.94        
May 11 16:37 SW 15 10 Partly Cloudy SCT065 84 55     37%   83 29.97        
May 11 14:17   10 Partly Cloudy SCT055 84 55     38%   83 30        
May 11 12:37 WSW 10 10 Clear CLR 79 63     57%   80          
May 11 12:17 SSW 7 10 Clear CLR 78 62     58%   79 30.04        
May 11 08:17 Calm 10 Clear CLR 63 56     77%              
Notice The following observation data may not be complete
Jun 12 07:36   10 Clear CLR          %              
Jun 12 07:16 SW 3 10 Clear CLR 72 63     72%   73          
Jun 12 03:36 Calm 10 Mostly Cloudy BKN055 71 61     71%   71          
Jun 11 22:56 S 3 10 Clear CLR 76 60     58%   76          
Jun 11 22:16 S 3 10 Clear CLR 77 60     56%   77 30.08        
Jun 11 18:36 SSW 8 10 Partly Cloudy SCT065 85 57     39%   84 30.1        
Jun 11 09:36 SW 9 10 Partly Cloudy SCT055 77 61     58%   77          
Jun 11 07:16 SSW 3 10 Clear CLR 67 60     77%              
Jun 10 23:56 Calm 10 Clear CLR 71 59     64%   71          
Jun 10 21:36 SSW 5 10 Clear CLR 76 58     53%   76          
Jun 10 18:56 SSW 9 10 Clear CLR 83 55     38%   82 30.01        
Jun 10 09:55 SW 6 10 Clear CLR 73 57     57%   73          
Jun 10 03:16 SW 6 10 Clear CLR 65 54     68%              
Notice The following observation data may not be complete
Jun 09 21:36   10 Clear CLR          %              
Jun 09 19:56 SW 8 10 Clear CLR 78 50     36%   78 29.92        
Jun 09 17:16 SW 8 10 Clear   81 48     32%   80 29.92        
Notice The following observation data may not be complete
Jun 09 15:16   10 Clear CLR          %              
Jun 09 13:36 SW 9 10 Clear CLR 78 50     37%   78 29.97        
Notice The following observation data may not be complete
Jun 09 05:36   10 Clear CLR          %              
Notice The following observation data may not be complete
Jun 09 04:36   10 Clear CLR          %              
Jun 09 00:36 Calm 10 Clear CLR 57 53     84%     29.92        
Jun 08 23:15 Calm 10 Clear CLR 63 53     71%     29.92        
Jun 08 20:15 WNW 5 10 Clear CLR 72 49     43%   71 29.9        
Jun 08 08:35 NNE 7 10 Clear CLR 57 52     84%              
Jun 08 03:35 Calm 10 Clear CLR 51 49     93%              
Jun 08 00:16 Calm 10 Clear CLR 55 50     83%     30.04        
Jun 07 16:55 NNE 10 10 Cloudy SCT041 SCT049 OVC060 64 49     59%     30.03        
Jun 07 12:36 NE 7 10 Cloudy BKN047 OVC050 63 51     64%              
Jun 07 10:15 NE 9 10 Cloudy SCT023 BKN036 OVC046 64 52     64%              
Jun 07 09:36 ENE 8 10 Cloudy SCT020 BKN026 OVC034 63 53     70%              
Jun 06 10:35 NNE 8 10 Clear CLR 66 52     61%     29.96        
Jun 06 08:35 NE 5 10 Clear CLR 61 54     78%     29.95        
Jun 06 04:15 NE 5 10 Clear CLR 58 54     84%              
Jun 06 02:35 NE 3 10 Clear CLR 60 55     84%              
Jun 06 00:55 NE 8 10 Clear CLR 64 59     83%              
Jun 05 23:55 NE 5 10 Partly Cloudy SCT080 SCT095 SCT110 66 62     87%              
Jun 05 21:55 Calm 10 Mostly Cloudy SCT075 BKN090 68 64     88%              
Notice The following observation data may not be complete
Jun 05 21:35   10 Mostly Cloudy SCT065 BKN100 BKN120          %              
Jun 05 20:16 NE 3 10 Partly Cloudy SCT017 SCT026 SCT085 70 65     86%     29.77